�N����,����,�~����,�C��,���x,�C��,����,���ϕ���,�ő�u�ԕ���,�ő厞����,���˗�,�I�_���x,�n�����x,�ő啗���N��,DTYPE
"19/02/09","00:10",0.0,0.9,86.3,1014.5,313.3,2.1,3.2,325.1,0.00,-1.1,6.5,"00:03:36",1
"19/02/09","00:20",0.0,0.7,87.8,1014.5,309.9,1.3,1.9,320.3,0.00,-1.0,6.5,"00:19:28",1
"19/02/09","00:30",0.0,0.6,88.0,1014.5,301.0,1.3,2.8,325.9,0.00,-1.1,6.4,"00:22:08",1
"19/02/09","00:40",0.0,0.5,88.5,1014.7,299.4,1.6,2.1,319.3,0.00,-1.1,6.5,"00:32:32",1
"19/02/09","00:50",0.0,0.4,89.2,1014.5,299.7,1.1,1.6,285.1,0.00,-1.1,6.4,"00:42:56",1
"19/02/09","01:00",0.0,0.4,89.9,1014.5,287.6,1.3,2.2,309.6,0.00,-1.0,6.2,"00:59:44",1
"19/02/09","01:10",0.0,0.5,90.1,1014.5,301.3,2.1,2.7,319.2,0.00,-0.9,6.2,"01:01:04",1
"19/02/09","01:20",0.0,0.6,90.3,1014.2,287.2,1.8,2.4,290.4,0.00,-0.8,6.3,"01:15:52",1
"19/02/09","01:30",0.0,0.7,90.5,1014.0,301.6,2.0,2.9,319.3,0.00,-0.6,6.1,"01:23:04",1
"19/02/09","01:40",0.0,0.7,90.4,1014.2,302.6,2.1,2.6,320.7,0.00,-0.6,6.1,"01:35:04",1
"19/02/09","01:50",0.0,0.6,90.5,1014.0,311.8,2.5,3.4,321.0,0.00,-0.7,6.0,"01:46:18",1
"19/02/09","02:00",0.0,0.5,90.6,1014.2,307.1,2.2,2.7,318.9,0.00,-0.8,6.0,"01:56:56",1
"19/02/09","02:10",0.0,0.4,90.8,1014.0,312.3,2.2,2.8,315.7,0.00,-0.9,5.9,"02:03:04",1
"19/02/09","02:20",0.0,0.4,91.3,1014.0,288.9,1.6,2.2,268.9,0.00,-0.8,5.8,"02:19:20",1
"19/02/09","02:30",0.0,0.4,91.3,1014.0,299.8,2.2,2.9,323.5,0.00,-0.8,5.9,"02:24:40",1
"19/02/09","02:40",0.0,0.5,90.9,1013.8,301.3,2.2,3.2,315.7,0.00,-0.8,5.8,"02:38:24",1
"19/02/09","02:50",0.0,0.6,90.9,1014.0,294.5,2.2,2.9,308.9,0.00,-0.7,5.7,"02:43:28",1
"19/02/09","03:00",0.0,0.6,90.9,1013.8,294.6,2.0,2.7,299.9,0.00,-0.7,5.9,"02:58:08",1
"19/02/09","03:10",0.0,0.7,90.8,1014.0,307.4,2.3,2.9,315.8,0.00,-0.6,5.7,"03:09:12",1
"19/02/09","03:20",0.0,0.7,90.5,1013.5,320.0,2.7,3.7,324.3,0.00,-0.6,5.9,"03:16:16",1
"19/02/09","03:30",0.0,0.6,90.2,1014.0,303.9,2.3,3.1,316.1,0.00,-0.8,5.7,"03:21:36",1
"19/02/09","03:40",0.0,0.5,90.2,1013.5,311.5,1.6,2.8,318.9,0.00,-0.9,5.8,"03:31:36",1
"19/02/09","03:50",0.0,0.3,90.7,1013.3,304.3,0.8,1.9,316.9,0.00,-1.0,5.9,"03:49:52",1
"19/02/09","04:00",0.0,0.3,90.8,1013.0,322.3,1.5,2.8,322.6,0.00,-1.0,5.8,"03:56:16",1
"19/02/09","04:10",0.0,0.4,91.4,1013.0,313.0,2.1,3.2,320.7,0.00,-0.8,5.7,"04:03:28",1
"19/02/09","04:20",0.0,0.6,90.9,1012.6,304.6,2.7,3.6,309.1,0.00,-0.7,5.7,"04:14:24",1
"19/02/09","04:30",0.0,0.7,90.6,1012.8,299.0,2.7,3.5,311.1,0.00,-0.6,5.6,"04:28:56",1
"19/02/09","04:40",0.0,0.7,90.4,1012.6,301.0,2.5,3.7,315.1,0.00,-0.6,5.6,"04:30:48",1
"19/02/09","04:50",0.0,0.8,90.2,1012.8,300.9,2.2,3.6,317.7,0.00,-0.6,5.6,"04:49:20",1
"19/02/09","05:00",0.0,0.9,90.0,1012.6,317.8,2.7,3.5,320.7,0.00,-0.5,5.7,"04:50:08",1
"19/02/09","05:10",0.0,1.2,89.4,1012.3,313.3,3.4,4.1,316.9,0.00,-0.3,5.6,"05:02:24",1
"19/02/09","05:20",0.0,1.2,89.0,1012.1,310.4,3.4,5.1,321.4,0.00,-0.4,5.5,"05:19:44",1
"19/02/09","05:30",0.0,1.3,88.5,1012.6,312.8,2.8,4.5,319.7,0.00,-0.3,5.7,"05:21:36",1
"19/02/09","05:40",0.0,1.1,88.3,1012.1,304.6,0.8,1.9,304.9,0.00,-0.6,5.7,"05:31:52",1
"19/02/09","05:50",0.0,0.9,88.6,1011.9,300.7,2.0,2.8,317.2,0.00,-0.7,5.6,"05:48:40",1
"19/02/09","06:00",0.0,0.9,89.1,1011.4,319.5,2.3,2.9,323.4,0.00,-0.6,5.6,"05:59:44",1
"19/02/09","06:10",0.0,1.0,89.2,1011.6,312.1,2.1,3.3,324.0,0.00,-0.5,5.7,"06:01:52",1
"19/02/09","06:20",0.0,1.0,89.4,1011.6,296.7,1.6,2.1,312.6,0.00,-0.5,5.5,"06:16:40",1
"19/02/09","06:30",0.0,1.0,89.7,1012.1,290.9,1.5,2.1,293.1,0.00,-0.5,5.4,"06:29:44",1
"19/02/09","06:40",0.0,1.2,89.6,1012.1,313.2,3.0,4.0,324.5,0.00,-0.3,5.5,"06:38:24",1
"19/02/09","06:50",0.0,1.2,89.5,1012.3,324.7,2.8,3.7,335.7,0.00,-0.3,5.6,"06:41:36",1
"19/02/09","07:00",0.0,1.3,89.5,1012.6,324.2,2.7,4.0,335.0,0.00,-0.2,5.6,"06:59:14",1
"19/02/09","07:10",0.0,1.4,89.1,1012.8,325.6,3.1,4.4,336.8,0.00,-0.2,5.6,"07:09:16",1
"19/02/09","07:20",0.0,1.5,88.7,1013.0,325.5,3.4,4.8,318.1,0.00,-0.1,5.5,"07:16:30",1
"19/02/09","07:30",0.0,1.6,88.4,1013.5,318.0,3.1,5.1,324.6,0.00,-0.1,5.5,"07:25:28",1
"19/02/09","07:40",0.0,1.7,88.1,1013.3,322.0,3.5,4.7,328.5,0.00,0.0,5.6,"07:30:58",1
"19/02/09","07:50",0.0,1.7,87.8,1013.0,315.0,2.8,4.5,319.3,0.00,-0.1,5.6,"07:45:28",1
"19/02/09","08:00",0.0,1.8,87.5,1013.0,326.4,2.5,3.6,322.5,0.00,0.0,5.8,"07:50:56",1
"19/02/09","08:10",0.0,1.8,87.3,1012.6,331.2,1.6,3.1,332.3,0.00,0.0,5.5,"08:02:48",1
"19/02/09","08:20",0.0,1.9,87.1,1012.3,321.4,1.1,1.9,340.6,0.00,0.0,5.4,"08:10:32",1
"19/02/09","08:30",0.0,2.0,86.8,1012.3,308.5,1.7,2.6,323.9,0.00,0.1,5.4,"08:23:52",1
"19/02/09","08:40",0.0,2.2,86.6,1011.9,301.1,1.6,2.8,324.8,0.01,0.2,5.6,"08:35:28",1
"19/02/09","08:50",0.0,2.2,86.3,1011.9,285.7,1.3,2.1,313.7,0.01,0.2,5.8,"08:49:04",1
"19/02/09","09:00",0.0,2.4,86.0,1012.3,309.3,2.3,4.1,321.9,0.02,0.3,5.5,"08:58:48",1
"19/02/09","09:10",0.0,2.6,85.6,1012.8,295.8,2.1,3.2,317.5,0.04,0.5,5.5,"09:00:02",1
"19/02/09","09:20",0.0,2.7,84.5,1012.3,297.6,1.8,3.5,319.9,0.03,0.4,5.7,"09:10:56",1
"19/02/09","09:30",0.0,2.6,83.8,1012.8,257.1,1.5,1.9,247.2,0.02,0.2,6.0,"09:21:12",1
"19/02/09","09:40",0.0,2.7,83.3,1012.6,287.7,1.1,2.1,299.8,0.03,0.2,5.6,"09:32:24",1
"19/02/09","09:50",0.0,3.0,82.7,1012.3,272.8,0.8,1.3,266.6,0.06,0.4,5.7,"09:41:12",1
"19/02/09","10:00",0.0,3.2,82.2,1012.6,287.1,1.6,3.3,319.6,0.06,0.5,5.8,"09:59:12",1
"19/02/09","10:10",0.0,3.3,81.7,1012.8,296.5,1.8,2.7,318.6,0.06,0.5,5.9,"10:02:56",1
"19/02/09","10:20",0.0,3.4,81.1,1012.8,302.4,1.7,2.5,311.1,0.06,0.5,6.0,"10:12:32",1
"19/02/09","10:30",0.0,3.4,80.4,1012.8,301.5,1.8,3.3,314.4,0.04,0.4,6.2,"10:25:36",1
"19/02/09","10:40",0.0,3.3,79.6,1012.8,296.7,1.0,2.0,305.7,0.03,0.2,5.9,"10:31:36",1
"19/02/09","10:50",0.0,3.4,78.9,1012.8,273.8,1.1,1.4,276.2,0.03,0.1,6.1,"10:48:32",1
"19/02/09","11:00",0.0,3.6,78.3,1012.3,285.3,1.6,3.2,325.0,0.03,0.2,6.3,"10:57:52",1
"19/02/09","11:10",0.0,3.7,78.1,1012.6,280.0,1.5,2.9,317.6,0.04,0.3,6.3,"11:00:08",1
"19/02/09","11:20",0.0,3.8,77.7,1012.6,280.7,1.5,1.9,304.3,0.04,0.3,6.2,"11:19:28",1
"19/02/09","11:30",0.0,3.9,76.1,1012.1,267.5,1.0,2.9,309.1,0.04,0.1,6.2,"11:20:24",1
"19/02/09","11:40",0.0,3.9,74.6,1012.1,291.9,1.2,2.5,315.9,0.04,-0.2,6.3,"11:38:40",1
"19/02/09","11:50",0.0,4.2,73.9,1011.9,303.9,1.7,2.9,303.3,0.07,0.0,6.5,"11:48:40",1
"19/02/09","12:00",0.0,4.6,74.0,1011.6,286.5,1.7,2.9,310.0,0.11,0.4,6.5,"11:50:24",1
"19/02/09","12:10",0.0,4.7,72.5,1011.6,266.6,1.0,1.9,266.7,0.12,0.2,6.4,"12:00:56",1
"19/02/09","12:20",0.0,4.7,71.2,1011.4,247.7,0.6,1.3,195.7,0.09,0.0,6.6,"12:16:16",1
"19/02/09","12:30",0.0,4.6,70.5,1011.6,275.2,0.8,1.6,304.5,0.07,-0.3,6.6,"12:24:00",1
"19/02/09","12:40",0.0,4.6,71.1,1010.9,218.4,1.0,1.8,217.8,0.09,-0.1,6.5,"12:33:44",1
"19/02/09","12:50",0.0,4.9,70.4,1011.2,236.4,1.0,2.0,251.0,0.10,0.0,6.6,"12:43:12",1
"19/02/09","13:00",0.0,4.5,69.5,1011.4,271.8,1.7,3.4,305.9,0.04,-0.5,6.8,"12:56:32",1
"19/02/09","13:10",0.0,4.8,69.4,1011.2,300.6,1.8,3.2,312.0,0.09,-0.3,6.9,"13:03:04",1
"19/02/09","13:20",0.0,5.2,69.5,1010.7,278.9,1.1,1.6,285.5,0.18,0.1,7.0,"13:12:24",1
"19/02/09","13:30",0.0,5.3,71.5,1010.2,226.9,0.8,1.6,206.3,0.18,0.6,7.1,"13:22:00",1
"19/02/09","13:40",0.0,5.1,69.4,1010.7,197.9,1.5,2.8,198.6,0.15,0.0,7.1,"13:34:08",1
"19/02/09","13:50",0.0,5.4,69.5,1010.4,259.6,1.1,2.2,251.7,0.16,0.3,7.1,"13:49:52",1
"19/02/09","14:00",0.0,6.1,68.3,1010.0,243.0,1.3,2.4,295.5,0.31,0.7,7.1,"13:57:30",1
"19/02/09","14:10",0.0,6.3,68.3,1009.5,225.9,1.7,3.1,275.4,0.29,0.9,7.5,"14:04:16",1
"19/02/09","14:20",0.0,6.1,67.1,1010.0,243.7,1.6,4.4,239.1,0.19,0.5,7.2,"14:13:36",1
"19/02/09","14:30",0.0,6.1,65.1,1010.2,219.3,1.2,2.6,249.2,0.11,0.1,7.7,"14:29:20",1
"19/02/09","14:40",0.0,6.6,63.9,1010.2,233.2,0.8,1.9,186.7,0.17,0.3,7.7,"14:37:52",1
"19/02/09","14:50",0.0,7.0,63.4,1010.4,255.9,1.1,2.0,245.7,0.19,0.6,7.7,"14:49:36",1
"19/02/09","15:00",0.0,7.4,64.5,1010.0,258.3,1.3,3.3,264.2,0.16,1.2,7.9,"14:57:12",1
"19/02/09","15:10",0.0,7.4,63.7,1010.2,259.3,1.6,3.7,307.5,0.14,1.0,7.9,"15:03:04",1
"19/02/09","15:20",0.0,7.7,64.0,1010.2,268.4,1.7,3.5,254.9,0.09,1.4,8.0,"15:16:48",1
"19/02/09","15:30",0.0,7.4,63.9,1010.4,306.8,2.8,4.7,329.7,0.05,1.1,7.9,"15:21:36",1
"19/02/09","15:40",0.0,7.5,64.9,1010.4,310.8,2.6,4.9,345.9,0.06,1.4,8.0,"15:34:16",1
"19/02/09","15:50",0.0,7.5,65.5,1010.9,323.0,3.0,4.7,320.7,0.08,1.5,8.2,"15:47:36",1
"19/02/09","16:00",0.0,7.5,65.8,1010.7,296.1,2.7,4.4,335.5,0.06,1.6,8.1,"15:54:08",1
"19/02/09","16:10",0.0,7.5,65.6,1010.9,291.3,2.6,3.9,309.4,0.06,1.5,8.1,"16:03:44",1
"19/02/09","16:20",0.0,7.5,65.8,1010.7,304.5,3.0,5.0,334.1,0.07,1.6,8.3,"16:13:20",1
"19/02/09","16:30",0.0,7.5,66.4,1010.4,297.5,2.5,4.5,329.3,0.09,1.7,8.0,"16:23:20",1
"19/02/09","16:40",0.0,7.5,65.4,1010.2,296.6,2.8,5.9,337.2,0.05,1.5,8.2,"16:34:48",1
"19/02/09","16:50",0.0,7.4,66.0,1010.0,296.0,2.7,4.5,322.4,0.04,1.5,8.1,"16:46:08",1
"19/02/09","17:00",0.0,7.2,67.0,1010.2,269.3,2.2,3.9,218.2,0.01,1.5,8.2,"16:51:44",1
"19/02/09","17:10",0.0,7.2,67.3,1010.4,289.6,2.2,4.0,335.8,0.00,1.6,7.9,"17:09:28",1
"19/02/09","17:20",0.0,7.1,67.6,1010.4,298.1,2.8,4.9,306.5,0.00,1.6,8.0,"17:18:08",1
"19/02/09","17:30",0.0,7.0,67.9,1010.9,294.7,2.8,4.8,323.6,0.00,1.5,8.0,"17:26:48",1
"19/02/09","17:40",0.0,6.9,69.0,1011.2,287.9,2.8,4.5,292.7,0.00,1.7,8.0,"17:30:08",1
"19/02/09","17:50",0.0,6.3,72.7,1011.2,313.2,3.6,6.2,327.0,0.00,1.8,7.8,"17:42:40",1
"19/02/09","18:00",0.0,6.0,74.8,1010.7,291.4,3.2,5.4,298.0,0.00,1.9,7.7,"17:57:40",1
"19/02/09","18:10",0.0,5.7,76.2,1010.9,317.9,3.9,6.0,344.5,0.00,1.9,7.7,"18:04:32",1
"19/02/09","18:20",0.0,5.6,77.2,1010.9,314.2,4.0,6.8,324.7,0.00,2.0,7.7,"18:16:08",1
"19/02/09","18:30",0.0,5.5,77.6,1010.9,292.8,2.7,5.4,333.6,0.00,1.9,7.5,"18:26:24",1
"19/02/09","18:40",0.0,5.2,77.9,1010.9,288.6,2.2,4.1,319.5,0.00,1.7,7.3,"18:37:36",1
"19/02/09","18:50",0.0,5.2,78.8,1011.4,312.7,3.2,5.0,316.9,0.00,1.9,7.5,"18:43:20",1
"19/02/09","19:00",0.0,5.0,79.6,1011.4,295.3,2.2,3.3,315.9,0.00,1.8,7.4,"18:50:24",1
"19/02/09","19:10",0.0,5.2,80.2,1011.6,273.5,2.0,3.2,262.1,0.00,2.1,7.2,"19:05:20",1
"19/02/09","19:20",0.0,5.2,80.5,1011.4,275.6,2.0,2.7,267.4,0.00,2.2,7.2,"19:12:40",1
"19/02/09","19:30",0.0,5.3,80.7,1011.6,277.5,2.3,3.7,317.1,0.00,2.3,7.4,"19:20:48",1
"19/02/09","19:40",0.0,5.3,81.0,1011.6,281.0,2.6,5.0,320.1,0.00,2.3,7.2,"19:35:04",1
"19/02/09","19:50",0.0,5.5,80.1,1011.9,305.6,3.5,6.4,340.1,0.00,2.4,7.1,"19:46:00",1
"19/02/09","20:00",0.0,5.3,79.9,1011.9,294.5,4.0,8.1,346.4,0.00,2.2,7.2,"19:58:50",1
"19/02/09","20:10",0.0,5.0,80.9,1011.9,299.5,3.6,6.4,293.2,0.00,2.0,7.1,"20:02:48",1
"19/02/09","20:20",0.0,4.9,81.4,1011.6,282.1,2.8,6.5,310.1,0.00,2.0,6.9,"20:19:12",1
"19/02/09","20:30",0.0,4.8,82.1,1011.4,285.2,3.7,6.4,328.1,0.00,2.0,6.9,"20:29:28",1
"19/02/09","20:40",0.0,4.8,82.0,1011.4,280.7,4.1,6.4,262.6,0.00,2.0,7.0,"20:34:16",1
"19/02/09","20:50",0.0,4.7,81.6,1011.4,280.5,4.2,6.0,262.9,0.00,1.9,6.8,"20:41:52",1
"19/02/09","21:00",0.0,4.6,81.1,1011.6,292.7,4.9,10.9,326.4,0.00,1.7,6.8,"20:54:48",1
"19/02/09","21:10",0.0,4.5,80.6,1011.6,308.8,3.7,7.5,318.6,0.00,1.5,6.8,"21:04:24",1
"19/02/09","21:20",0.0,4.5,80.6,1011.9,293.3,2.6,4.5,337.6,0.00,1.5,7.0,"21:10:16",1
"19/02/09","21:30",0.0,4.5,80.2,1012.3,284.0,3.4,6.7,330.1,0.00,1.4,6.9,"21:25:28",1
"19/02/09","21:40",0.0,4.4,80.5,1012.3,291.8,4.2,7.9,323.1,0.00,1.4,6.6,"21:38:24",1
"19/02/09","21:50",0.0,4.2,81.7,1012.3,292.8,4.0,8.2,338.2,0.00,1.4,6.8,"21:40:16",1
"19/02/09","22:00",0.0,4.2,82.6,1011.9,292.8,3.7,6.2,321.6,0.00,1.5,6.6,"21:52:40",1
"19/02/09","22:10",0.0,4.0,83.6,1012.8,282.4,2.5,4.1,316.9,0.00,1.5,6.5,"22:00:16",1
"19/02/09","22:20",0.0,3.9,84.8,1012.3,292.5,1.5,3.2,316.3,0.00,1.6,6.7,"22:10:08",1
"19/02/09","22:30",0.0,3.8,85.7,1012.3,270.6,1.6,2.5,268.7,0.00,1.7,6.4,"22:26:48",1
"19/02/09","22:40",0.0,3.8,86.5,1012.1,263.3,1.7,2.6,298.4,0.00,1.8,6.5,"22:39:04",1
"19/02/09","22:50",0.0,3.9,87.0,1012.6,263.0,2.0,3.5,265.9,0.00,2.0,6.5,"22:48:32",1
"19/02/09","23:00",0.0,3.8,87.3,1012.8,272.9,1.7,2.9,270.5,0.00,1.9,6.4,"22:51:44",1
"19/02/09","23:10",0.0,3.8,87.8,1012.8,294.7,1.7,2.4,314.4,0.00,2.0,6.5,"23:07:46",1
"19/02/09","23:20",0.0,3.7,88.2,1013.5,286.7,1.7,2.4,313.2,0.00,2.0,6.6,"23:17:28",1
"19/02/09","23:30",0.0,3.7,88.2,1013.8,292.7,3.1,5.1,297.8,0.00,2.0,6.5,"23:26:48",1
"19/02/09","23:40",0.0,3.7,87.6,1013.8,292.1,2.8,5.2,305.2,0.00,1.9,6.4,"23:36:24",1
"19/02/09","23:50",0.0,3.6,87.4,1014.0,294.3,1.8,4.5,318.8,0.00,1.7,6.3,"23:43:44",1
"19/02/09","24:00",0.0,3.5,87.3,1014.2,313.0,1.3,2.4,313.3,0.00,1.6,6.6,"23:57:36",1
